Location: Bazinghen
(50.8246°N, 1.6616°E)
Time: 08:25:17
(UTC+00:00)

STARLINK-1206 - Pass Details

Date: 09 April 2020
Orbit: 549 x 550 km, 53.0° (Epoch: 25 May)

Event Time Altitude Azimuth Distance (km) Brightness Sun altitude
Rises 19:45:37 0° 290° (WNW) 2,683 9.3 -10.6°
Reaches altitude 10° 19:47:58 10° 281° (W) 1,789 7.6 -10.9°
Maximum altitude 19:51:39 34° 216° (SW) 895 4.8 -11.4°
Enters shadow 19:54:51 13° 154° (SSE) 1,616 5.5 -11.9°
